Stündliche Wetter Abhar

Heute, 17 Juni, Donnerstag

Zeit Temperatur Niederschläge Wind Luftdruck Luftfeuchtigkeit
00:00 +20°C° 0 mm 2 m/S 620 mmHg 62%
01:00 +20°C° 0 mm 2 m/S 620 mmHg 61%
02:00 +20°C° 0 mm 2 m/S 620 mmHg 60%
03:00 +19°C° 0 mm 2 m/S 620 mmHg 59%
04:00 +20°C° 0 mm 2 m/S 620 mmHg 52%
05:00 +23°C° 0 mm 2 m/S 621 mmHg 46%
06:00 +24°C° 0 mm 2 m/S 621 mmHg 39%
07:00 +25°C° 0 mm 3 m/S 622 mmHg 32%
08:00 +27°C° 0 mm 4 m/S 622 mmHg 26%
09:00 +29°C° 0 mm 5 m/S 623 mmHg 19%
10:00 +32°C° 0 mm 5 m/S 623 mmHg 17%
11:00 +33°C° 0 mm 5 m/S 623 mmHg 15%
12:00 +35°C° 0 mm 5 m/S 623 mmHg 13%
13:00 +36°C° 0 mm 5 m/S 623 mmHg 13%
14:00 +36°C° 0 mm 5 m/S 623 mmHg 12%
15:00 +37°C° 0 mm 5 m/S 623 mmHg 11%
16:00 +36°C° 0 mm 5 m/S 622 mmHg 13%
17:00 +35°C° 0 mm 5 m/S 622 mmHg 14%
18:00 +34°C° 0 mm 5 m/S 622 mmHg 16%
19:00 +30°C° 0 mm 4 m/S 622 mmHg 25%
20:00 +27°C° 0 mm 3 m/S 621 mmHg 34%
21:00 +24°C° 0 mm 2 m/S 621 mmHg 44%
22:00 +24°C° 0 mm 2 m/S 621 mmHg 45%
23:00 +23°C° 0 mm 2 m/S 620 mmHg 47%

Morgen, 18 Juni, Freitag

Zeit Temperatur Niederschläge Wind Luftdruck Luftfeuchtigkeit
00:00 +23°C° 0 mm 2 m/S 620 mmHg 48%
01:00 +21°C° 0 mm 2 m/S 620 mmHg 52%
02:00 +20°C° 0 mm 2 m/S 620 mmHg 55%
03:00 +19°C° 0 mm 2 m/S 620 mmHg 59%
04:00 +20°C° 0 mm 3 m/S 621 mmHg 59%
05:00 +20°C° 0 mm 3 m/S 621 mmHg 58%
06:00 +20°C° 0 mm 3 m/S 622 mmHg 58%
07:00 +22°C° 0 mm 3 m/S 622 mmHg 48%
08:00 +25°C° 0 mm 4 m/S 623 mmHg 38%
09:00 +27°C° 0 mm 4 m/S 623 mmHg 28%
10:00 +28°C° 0 mm 4 m/S 624 mmHg 26%
11:00 +29°C° 0 mm 5 m/S 624 mmHg 24%
12:00 +30°C° 0 mm 6 m/S 624 mmHg 22%
13:00 +30°C° 0 mm 6 m/S 624 mmHg 22%
14:00 +30°C° 0 mm 6 m/S 624 mmHg 23%
15:00 +30°C° 0 mm 6 m/S 624 mmHg 24%
16:00 +29°C° 0 mm 5 m/S 623 mmHg 28%
17:00 +27°C° 0 mm 5 m/S 623 mmHg 33%
18:00 +26°C° 0 mm 4 m/S 622 mmHg 38%
19:00 +23°C° 0 mm 4 m/S 622 mmHg 46%
20:00 +21°C° 0 mm 3 m/S 622 mmHg 55%
21:00 +18°C° 0 mm 3 m/S 622 mmHg 64%
22:00 +18°C° 0 mm 3 m/S 622 mmHg 62%
23:00 +17°C° 0 mm 3 m/S 622 mmHg 61%

übermorgen, 19 Juni, Samstag

Zeit Temperatur Niederschläge Wind Luftdruck Luftfeuchtigkeit
00:00 +17°C° 0 mm 3 m/S 622 mmHg 59%
01:00 +17°C° 0 mm 3 m/S 622 mmHg 57%
02:00 +16°C° 0 mm 3 m/S 622 mmHg 55%
03:00 +16°C° 0 mm 2 m/S 622 mmHg 53%
04:00 +17°C° 0 mm 2 m/S 623 mmHg 48%
05:00 +17°C° 0 mm 2 m/S 623 mmHg 43%
06:00 +18°C° 0 mm 2 m/S 624 mmHg 38%
07:00 +21°C° 0 mm 3 m/S 624 mmHg 33%
08:00 +25°C° 0 mm 5 m/S 625 mmHg 29%
09:00 +27°C° 0 mm 6 m/S 626 mmHg 24%
10:00 +29°C° 0 mm 7 m/S 626 mmHg 22%
11:00 +30°C° 0 mm 7 m/S 626 mmHg 19%
12:00 +32°C° 0 mm 8 m/S 626 mmHg 17%
13:00 +33°C° 0 mm 8 m/S 626 mmHg 15%
14:00 +34°C° 0 mm 8 m/S 626 mmHg 13%
15:00 +35°C° 0 mm 8 m/S 625 mmHg 11%
16:00 +33°C° 0 mm 7 m/S 625 mmHg 14%
17:00 +32°C° 0 mm 7 m/S 625 mmHg 17%
18:00 +30°C° 0 mm 6 m/S 624 mmHg 20%
19:00 +27°C° 0 mm 5 m/S 624 mmHg 28%
20:00 +25°C° 0 mm 4 m/S 624 mmHg 35%
21:00 +21°C° 0 mm 2 m/S 624 mmHg 42%
22:00 +21°C° 0 mm 2 m/S 623 mmHg 42%
23:00 +21°C° 0 mm 2 m/S 623 mmHg 42%

20 Juni, Sonntag

Zeit Temperatur Niederschläge Wind Luftdruck Luftfeuchtigkeit
00:00 +20°C° 0 mm 2 m/S 623 mmHg 42%
01:00 +20°C° 0 mm 2 m/S 623 mmHg 42%
02:00 +20°C° 0 mm 2 m/S 623 mmHg 42%
03:00 +19°C° 0 mm 2 m/S 623 mmHg 42%
04:00 +20°C° 0 mm 2 m/S 623 mmHg 37%
05:00 +21°C° 0 mm 3 m/S 624 mmHg 33%
06:00 +22°C° 0 mm 3 m/S 624 mmHg 28%
07:00 +25°C° 0 mm 5 m/S 625 mmHg 22%
08:00 +28°C° 0 mm 7 m/S 625 mmHg 17%
09:00 +31°C° 0 mm 9 m/S 626 mmHg 12%
10:00 +32°C° 0 mm 8 m/S 626 mmHg 12%
11:00 +33°C° 0 mm 8 m/S 626 mmHg 11%
12:00 +34°C° 0 mm 8 m/S 626 mmHg 11%
13:00 +35°C° 0 mm 8 m/S 626 mmHg 10%
14:00 +35°C° 0 mm 7 m/S 626 mmHg 10%
15:00 +36°C° 0 mm 7 m/S 625 mmHg 10%
16:00 +34°C° 0 mm 6 m/S 625 mmHg 16%
17:00 +30°C° 0 mm 6 m/S 624 mmHg 22%
18:00 +28°C° 0 mm 5 m/S 624 mmHg 28%
19:00 +26°C° 0 mm 4 m/S 623 mmHg 37%
20:00 +24°C° 0 mm 3 m/S 623 mmHg 47%
21:00 +20°C° 0 mm 3 m/S 623 mmHg 56%
22:00 +20°C° 0 mm 3 m/S 623 mmHg 58%
23:00 +19°C° 0 mm 2 m/S 622 mmHg 59%

21 Juni, Montag

Zeit Temperatur Niederschläge Wind Luftdruck Luftfeuchtigkeit
00:00 +19°C° 0 mm 2 m/S 622 mmHg 61%
01:00 +19°C° 0 mm 2 m/S 622 mmHg 63%
02:00 +18°C° 0 mm 2 m/S 622 mmHg 64%
03:00 +18°C° 0 mm 2 m/S 622 mmHg 66%
04:00 +18°C° 0 mm 2 m/S 622 mmHg 62%
05:00 +19°C° 0 mm 2 m/S 623 mmHg 58%
06:00 +20°C° 0 mm 2 m/S 623 mmHg 53%
07:00 +24°C° 0 mm 3 m/S 624 mmHg 44%
08:00 +26°C° 0 mm 3 m/S 624 mmHg 35%
09:00 +29°C° 0 mm 4 m/S 625 mmHg 26%
10:00 +30°C° 0 mm 5 m/S 625 mmHg 24%
11:00 +32°C° 0 mm 5 m/S 625 mmHg 22%
12:00 +33°C° 0 mm 6 m/S 625 mmHg 20%
13:00 +33°C° 0 mm 6 m/S 625 mmHg 21%
14:00 +34°C° 0 mm 6 m/S 625 mmHg 21%
15:00 +34°C° 0 mm 6 m/S 625 mmHg 22%
16:00 +32°C° 0 mm 5 m/S 624 mmHg 25%
17:00 +29°C° 0 mm 5 m/S 624 mmHg 28%
18:00 +28°C° 0 mm 4 m/S 623 mmHg 32%
19:00 +26°C° 0 mm 3 m/S 623 mmHg 38%
20:00 +24°C° 0 mm 3 m/S 623 mmHg 44%
21:00 +20°C° 0 mm 2 m/S 622 mmHg 49%
22:00 +20°C° 0 mm 2 m/S 622 mmHg 49%
23:00 +20°C° 0 mm 2 m/S 622 mmHg 48%

22 Juni, Dienstag

Zeit Temperatur Niederschläge Wind Luftdruck Luftfeuchtigkeit
00:00 +19°C° 0 mm 2 m/S 622 mmHg 48%
01:00 +19°C° 0 mm 2 m/S 622 mmHg 47%
02:00 +19°C° 0 mm 2 m/S 622 mmHg 46%
03:00 +18°C° 0 mm 2 m/S 622 mmHg 45%
04:00 +20°C° 0 mm 2 m/S 622 mmHg 44%
05:00 +22°C° 0 mm 1 m/S 623 mmHg 42%
06:00 +23°C° 0 mm 1 m/S 623 mmHg 40%
07:00 +25°C° 0 mm 2 m/S 624 mmHg 32%
08:00 +27°C° 0 mm 4 m/S 625 mmHg 25%
09:00 +30°C° 0 mm 5 m/S 625 mmHg 17%
10:00 +32°C° 0 mm 5 m/S 625 mmHg 15%
11:00 +33°C° 0 mm 5 m/S 626 mmHg 14%
12:00 +34°C° 0 mm 5 m/S 626 mmHg 12%
13:00 +35°C° 0 mm 5 m/S 626 mmHg 11%
14:00 +36°C° 0 mm 5 m/S 625 mmHg 10%
15:00 +36°C° 0 mm 5 m/S 625 mmHg 9%
16:00 +35°C° 0 mm 5 m/S 625 mmHg 12%
17:00 +33°C° 0 mm 5 m/S 624 mmHg 15%
18:00 +30°C° 0 mm 4 m/S 624 mmHg 18%
19:00 +28°C° 0 mm 4 m/S 624 mmHg 21%
20:00 +26°C° 0 mm 3 m/S 623 mmHg 25%
21:00 +23°C° 0 mm 2 m/S 623 mmHg 28%
22:00 +23°C° 0 mm 2 m/S 623 mmHg 29%
23:00 +21°C° 0 mm 2 m/S 623 mmHg 29%
Mehr zeigen

Wir brauchen deine Erlaubnis

Meteoprog und unser Service Anbieter werden persönliche Daten aufbewahren, so wie Cookies, Geräte Bezeichnung oder ähnliche Technologien von deinem Gerät und Prozess, so wie Persönliche Daten Inhalte und Werbungen, genauso wie social Media und den Verkehr zu analysieren.

  • Aufbewahrung und/oder Zugang zu deiner Geräte Informationen.

    Cookies, Geräte Bezeichnung oder andere Informationen, können aufbewahrt oder Zugang zu deinem Gerät erhalten, für den Grund, der oben angegeben wird.

  • Personalisierte Werbung und Inhalte, Messungen, Einblick in das Publikum und Produkt Entwicklung.

    Werbungen und Inhalte können personalisiert werden, basierend auf ein Profil. Mehr Daten können besser personalisierte Werbungen und Inhalte hinzufügen. Werbung und Inhalte können gezeigt und gemessen werden. Einblicke über das Publikum, welche die Werbung gesehen haben und den Inhalt, können abgeleitet werden. So wie Daten können genutzt werden, um es zu verbessern oder die Benutzer Erfahrung zu verbessern das System und die Software.

Wenn du “Ich stimme zu” klickst, erlaubst du uns, die Cookies zu benutzen die Geräte Bezeichnung, den Web oder ähnliche Technologien zu benutzen. Deine Settings, können in deinem Gerät bei deinem Browser geändert werden.

Für den bestimmten Zweck, berechtigten Interessen beruhen darauf, mehr als auf den Inhalt. Du kannst mehr darüber in unseren Privaten und Cookie Politik lesen.